Location: Burbank
(38.7788°N, 114.0429°W)
Time: 10:15:17
(UTC+00:00)

Vanguard 2 - Visible Passes

Search period start: 15 May 2026 00:00
Search period end: 25 May 2026 00:00
Orbit: 553 x 2895 km, 32.9° (Epoch: 14 May)

Date Brightness Start Highest point End Pass type
(mag) Time Alt. Az. Time Alt. Az. Time Alt. Az.
15 May 11.4 06:19:19 14° ESE 06:19:19 14° ESE 06:22:58 10° E visible
15 May 10.4 08:20:09 42° SSE 08:22:44 44° SSE 08:37:59 10° E visible
15 May 10.2 10:20:59 22° WSW 10:34:05 66° SSE 10:48:31 10° E visible
16 May 11.2 06:29:14 20° ESE 06:29:14 20° ESE 06:36:17 10° E visible
16 May 10.3 08:30:03 45° S 08:34:10 50° SSE 08:49:54 10° E visible
16 May 10.2 10:30:52 17° WSW 10:45:46 69° S 11:00:14 10° E visible
17 May 10.9 06:39:03 27° ESE 06:39:03 27° ESE 06:48:58 10° E visible
17 May 10.3 08:39:52 43° SSW 08:45:38 56° SSE 09:01:45 10° E visible
17 May 10.2 10:40:40 12° WSW 10:57:28 71° S 11:11:57 10° E visible
18 May 10.7 06:48:45 34° SE 06:48:45 34° SE 07:01:18 10° E visible
18 May 10.2 08:49:33 39° SW 08:57:10 61° SSE 09:13:32 10° E visible
18 May 10.2 10:51:32 10° W 11:09:10 71° S 11:23:37 10° ESE visible
19 May 10.4 06:58:18 41° SE 06:58:18 41° SE 07:13:25 10° E visible
19 May 10.2 08:59:06 32° SW 09:08:46 66° SSE 09:25:17 10° E visible
19 May 10.2 11:03:16 10° W 11:20:52 70° S 11:35:15 10° ESE visible
20 May 11.2 05:06:53 14° ESE 05:06:53 14° ESE 05:09:58 10° E visible
20 May 10.2 07:07:40 46° SSE 07:09:06 47° SSE 07:25:23 10° E visible
20 May 10.2 09:08:25 24° WSW 09:20:24 69° S 09:37:02 10° E visible
20 May 10.3 11:15:00 10° W 11:32:31 68° SSW 11:46:51 10° ESE visible
21 May 10.9 05:15:56 21° ESE 05:15:56 21° ESE 05:22:59 10° E visible
21 May 10.1 07:16:40 46° S 07:20:29 53° SSE 07:37:15 10° E visible
21 May 10.2 09:17:24 16° WSW 09:32:05 71° S 09:48:45 10° E visible
21 May 10.3 11:26:44 10° W 11:44:08 64° SSW 11:58:22 10° ESE visible
22 May 10.5 05:12:11 10° SSW 05:24:18 29° SE 05:35:31 10° E visible
22 May 10.1 07:24:56 37° SW 07:31:56 59° SSE 07:49:04 10° E visible
22 May 10.2 09:27:14 10° W 09:43:47 72° S 10:00:26 10° E visible
22 May 10.3 11:38:31 10° W 11:55:40 60° SSW 12:09:47 10° SE visible
23 May 10.2 05:22:50 10° SSW 05:33:27 36° SE 05:47:43 10° E visible
23 May 10.0 07:29:25 10° WSW 07:43:28 63° SSE 08:00:49 10° E visible
23 May 10.2 09:38:55 10° W 09:55:28 71° S 10:12:06 10° ESE visible
24 May 10.6 03:32:28 10° SSE 03:37:00 13° SE 03:42:14 10° ESE visible
24 May 10.0 05:33:44 10° SSW 05:44:40 42° SSE 05:59:45 10° E visible
24 May 10.0 07:40:55 10° WSW 07:55:04 67° SSE 08:12:35 10° E visible
24 May 10.2 09:50:37 10° W 10:07:08 69° S 10:23:42 10° ESE visible
